Date,TemperatureHighF,TemperatureAvgF,TemperatureLowF,DewpointHighF,DewpointAvgF,DewpointLowF,HumidityHigh,HumidityAvg,HumidityLow,PressureMaxIn,PressureMinIn,WindSpeedMaxMPH,WindSpeedAvgMPH,GustSpeedMaxMPH,PrecipitationSumIn
2013-8-1,70.3,63.3,56.8,-99.9,-99.9,-99.9,0,0,100,30.02,29.93,26,3,36,0.00
2013-8-2,75.8,65.4,57.9,-99.9,-99.9,-99.9,0,0,100,29.93,29.87,12,0,18,0.00
2013-8-3,72.8,64.5,58.7,-99.9,-99.9,-99.9,0,0,100,29.93,29.87,16,1,18,0.00
2013-8-4,71.1,62.4,56.8,-99.9,-99.9,-99.9,0,0,100,29.97,29.91,14,0,24,0.00
2013-8-5,70.3,62.5,58.0,-99.9,-99.9,-99.9,0,0,100,29.97,29.91,15,1,19,0.00
2013-8-6,66.2,60.8,57.0,-99.9,-99.9,-99.9,0,0,100,29.99,29.91,20,1,22,0.00
2013-8-7,62.9,60.0,57.8,-99.9,-99.9,-99.9,0,0,100,30.05,29.98,23,1,23,0.00
2013-8-8,68.3,62.0,58.8,-99.9,-99.9,-99.9,0,0,100,29.98,29.91,16,1,22,0.00
2013-8-9,68.5,61.5,57.4,-99.9,-99.9,-99.9,0,0,100,29.95,29.86,14,1,20,0.00
2013-8-10,71.1,63.4,58.7,-99.9,-99.9,-99.9,0,0,100,30.01,29.94,17,1,18,0.00
2013-8-11,73.6,64.6,58.4,-99.9,-99.9,-99.9,0,0,100,29.98,29.92,13,0,18,0.00
2013-8-12,76.9,65.6,58.3,-99.9,-99.9,-99.9,0,0,100,29.95,29.89,18,0,18,0.00
2013-8-13,81.4,68.9,58.0,-99.9,-99.9,-99.9,0,0,100,29.94,29.90,18,1,20,0.00
2013-8-14,79.4,69.7,61.0,-99.9,-99.9,-99.9,0,0,100,29.93,29.88,16,1,28,0.00
2013-8-15,80.5,71.3,64.6,-99.9,-99.9,-99.9,0,0,100,29.94,29.86,20,1,22,0.00
2013-8-16,80.4,72.1,65.0,-99.9,-99.9,-99.9,0,0,100,29.96,29.91,20,1,26,0.00
2013-8-17,77.0,68.7,63.4,-99.9,-99.9,-99.9,0,0,100,29.94,29.84,23,2,25,0.00
2013-8-18,87.9,73.5,61.8,-99.9,-99.9,-99.9,0,0,100,29.85,29.79,17,1,23,0.00
2013-8-19,83.1,76.9,70.9,-99.9,-99.9,-99.9,0,0,100,29.88,29.78,18,1,21,0.00
2013-8-20,73.7,68.5,63.4,-99.9,-99.9,-99.9,0,0,100,29.86,29.80,13,0,17,0.00
2013-8-21,72.3,64.6,59.9,-99.9,-99.9,-99.9,0,0,100,29.90,29.82,15,1,20,0.00
2013-8-22,69.9,63.4,58.8,-99.9,-99.9,-99.9,0,0,100,29.93,29.85,16,1,20,0.00
2013-8-23,73.7,64.6,58.7,-99.9,-99.9,-99.9,0,0,100,29.89,29.78,22,2,22,0.00
2013-8-24,74.0,66.2,59.1,-99.9,-99.9,-99.9,0,0,100,29.88,29.79,22,3,29,0.00
2013-8-25,72.5,67.5,64.5,-99.9,-99.9,-99.9,0,0,100,29.93,29.86,17,2,31,0.00
2013-8-26,74.2,66.8,61.9,-99.9,-99.9,-99.9,0,0,100,29.97,29.88,17,1,29,0.00
2013-8-27,77.4,67.5,59.4,-99.9,-99.9,-99.9,0,0,100,29.88,29.81,15,1,25,0.00
2013-8-28,77.5,68.7,62.2,-99.9,-99.9,-99.9,0,0,100,29.93,29.82,16,2,31,0.00
2013-8-29,78.1,70.0,63.8,-99.9,-99.9,-99.9,0,0,100,30.04,29.93,20,2,26,0.00
2013-8-30,83.3,72.9,64.4,-99.9,-99.9,-99.9,0,0,100,30.02,29.91,15,1,23,0.00
2013-8-31,79.0,71.1,63.5,-99.9,-99.9,-99.9,0,0,100,29.94,29.89,17,0,19,0.00